Location: Noordwijk
(52.2400°N, 4.4500°E)
Time: 09:51:18
(UTC+00:00)

CUBESAT XI-V - Visible Passes

Search period start: 27 November 2022 00:00
Search period end: 07 December 2022 00:00
Orbit: 666 x 689 km, 98.1° (Epoch: 26 November)

Date Brightness Start Highest point End Pass type
(mag) Time Alt. Az. Time Alt. Az. Time Alt. Az.
27 Nov ? 16:46:03 10° NW 16:46:50 10° NW 16:47:37 10° WNW visible
29 Nov ? 16:17:33 10° NNW 16:20:23 16° NW 16:23:12 10° W visible
02 Dec ? 16:26:10 10° NNW 16:28:35 14° NW 16:31:01 10° W visible
05 Dec ? 16:34:52 10° NNW 16:36:47 12° NW 16:38:42 10° WNW visible
